When you browse on this site, cookies collect data to enhance your experience and personalize the content and advertising you see.
Visit our Privacy Policy to learn more. By continuing to use the site, you agree to this use of cookies and data.
  • In United Kingdom
  • List of Countries
  • For 7 days
  • Water Temperature
  • Weather Map
  • Weather Widgets
  • user-avatar
    Login

    Hourly Weather Aberfeldy

    Today, 17 October, Thursday

    Time Temperature Precipitation Wind Pressure Humidity
    00:00 +5°C° 0 mm 1 mps 723 mmHg 94%
    01:00 +5°C° 0 mm 1 mps 723 mmHg 94%
    02:00 +3°C° 0 mm 0 mps 723 mmHg 95%
    03:00 +3°C° 0 mm 0 mps 723 mmHg 96%
    04:00 +3°C° 0 mm 0 mps 723 mmHg 96%
    05:00 +5°C° 0 mm 1 mps 722 mmHg 97%
    06:00 +5°C° 0 mm 1 mps 722 mmHg 97%
    07:00 +6°C° 0 mm 1 mps 722 mmHg 96%
    08:00 +6°C° 0 mm 1 mps 722 mmHg 96%
    09:00 +7°C° 0 mm 1 mps 722 mmHg 95%
    10:00 +8°C° 0 mm 1 mps 722 mmHg 94%
    11:00 +7°C° 0 mm 2 mps 722 mmHg 92%
    12:00 +8°C° 0 mm 2 mps 722 mmHg 91%
    13:00 +8°C° 0.5 mm 2 mps 722 mmHg 92%
    14:00 +8°C° 0.5 mm 2 mps 722 mmHg 93%
    15:00 +8°C° 0.5 mm 2 mps 721 mmHg 94%
    16:00 +8°C° 0.3 mm 2 mps 721 mmHg 95%
    17:00 +7°C° 0.3 mm 2 mps 721 mmHg 95%
    18:00 +7°C° 0.3 mm 2 mps 720 mmHg 96%
    19:00 +7°C° 0.2 mm 2 mps 720 mmHg 96%
    20:00 +7°C° 0.2 mm 2 mps 720 mmHg 96%
    21:00 +6°C° 0.2 mm 2 mps 720 mmHg 96%
    22:00 +7°C° 0.1 mm 1 mps 720 mmHg 97%
    23:00 +7°C° 0.1 mm 1 mps 720 mmHg 97%

    Tomorrow, 18 October, Friday

    Time Temperature Precipitation Wind Pressure Humidity
    00:00 +7°C° 0.1 mm 1 mps 720 mmHg 97%
    01:00 +7°C° 0 mm 1 mps 719 mmHg 97%
    02:00 +7°C° 0 mm 1 mps 719 mmHg 97%
    03:00 +7°C° 0 mm 1 mps 719 mmHg 97%
    04:00 +7°C° 0 mm 1 mps 719 mmHg 96%
    05:00 +7°C° 0 mm 1 mps 719 mmHg 96%
    06:00 +6°C° 0 mm 1 mps 719 mmHg 96%
    07:00 +7°C° 0 mm 1 mps 719 mmHg 94%
    08:00 +7°C° 0 mm 1 mps 719 mmHg 93%
    09:00 +8°C° 0 mm 1 mps 719 mmHg 91%
    10:00 +9°C° 0 mm 1 mps 719 mmHg 87%
    11:00 +10°C° 0 mm 1 mps 719 mmHg 82%
    12:00 +11°C° 0 mm 1 mps 719 mmHg 78%
    13:00 +11°C° 0.1 mm 1 mps 719 mmHg 78%
    14:00 +11°C° 0.1 mm 1 mps 719 mmHg 79%
    15:00 +11°C° 0.1 mm 1 mps 719 mmHg 79%
    16:00 +10°C° 0.1 mm 1 mps 719 mmHg 83%
    17:00 +9°C° 0.1 mm 1 mps 719 mmHg 87%
    18:00 +8°C° 0.1 mm 1 mps 719 mmHg 91%
    19:00 +8°C° 0.1 mm 1 mps 719 mmHg 91%
    20:00 +8°C° 0.1 mm 1 mps 719 mmHg 91%
    21:00 +8°C° 0.1 mm 1 mps 720 mmHg 92%
    22:00 +8°C° 0 mm 1 mps 720 mmHg 92%
    23:00 +8°C° 0 mm 1 mps 720 mmHg 92%

    Day after tomorrow, 19 October, Saturday

    Time Temperature Precipitation Wind Pressure Humidity
    00:00 +7°C° 0 mm 1 mps 720 mmHg 93%
    01:00 +7°C° 0 mm 1 mps 721 mmHg 93%
    02:00 +7°C° 0 mm 1 mps 721 mmHg 94%
    03:00 +7°C° 0 mm 1 mps 721 mmHg 94%
    04:00 +6°C° 0.1 mm 2 mps 721 mmHg 94%
    05:00 +6°C° 0.1 mm 2 mps 722 mmHg 94%
    06:00 +6°C° 0.1 mm 2 mps 722 mmHg 94%
    07:00 +6°C° 0 mm 2 mps 722 mmHg 92%
    08:00 +7°C° 0 mm 2 mps 723 mmHg 90%
    09:00 +7°C° 0 mm 2 mps 723 mmHg 89%
    10:00 +7°C° 0.2 mm 3 mps 724 mmHg 87%
    11:00 +8°C° 0.2 mm 3 mps 724 mmHg 85%
    12:00 +8°C° 0.2 mm 3 mps 724 mmHg 84%
    13:00 +8°C° 0.2 mm 3 mps 724 mmHg 84%
    14:00 +8°C° 0.2 mm 3 mps 725 mmHg 84%
    15:00 +8°C° 0.2 mm 3 mps 725 mmHg 85%
    16:00 +7°C° 0 mm 3 mps 725 mmHg 86%
    17:00 +7°C° 0 mm 3 mps 725 mmHg 88%
    18:00 +5°C° 0 mm 3 mps 726 mmHg 89%
    19:00 +5°C° 0 mm 3 mps 726 mmHg 89%
    20:00 +5°C° 0 mm 3 mps 727 mmHg 89%
    21:00 +5°C° 0 mm 3 mps 727 mmHg 89%
    22:00 +5°C° 0 mm 3 mps 728 mmHg 89%
    23:00 +4°C° 0 mm 3 mps 728 mmHg 89%

    20 October, Sunday

    Time Temperature Precipitation Wind Pressure Humidity
    00:00 +4°C° 0 mm 3 mps 728 mmHg 89%
    01:00 +4°C° 0 mm 3 mps 728 mmHg 89%
    02:00 +3°C° 0 mm 3 mps 728 mmHg 89%
    03:00 +3°C° 0 mm 3 mps 728 mmHg 89%
    04:00 +3°C° 0.1 mm 4 mps 728 mmHg 89%
    05:00 +3°C° 0.1 mm 4 mps 728 mmHg 90%
    06:00 +3°C° 0.1 mm 4 mps 728 mmHg 90%
    07:00 +4°C° 0.4 mm 4 mps 729 mmHg 89%
    08:00 +4°C° 0.4 mm 4 mps 729 mmHg 89%
    09:00 +5°C° 0.4 mm 4 mps 729 mmHg 88%
    10:00 +5°C° 0.6 mm 4 mps 730 mmHg 88%
    11:00 +6°C° 0.6 mm 4 mps 731 mmHg 88%
    12:00 +7°C° 0.6 mm 4 mps 731 mmHg 88%
    13:00 +7°C° 0.1 mm 4 mps 732 mmHg 87%
    14:00 +8°C° 0.1 mm 3 mps 732 mmHg 87%
    15:00 +8°C° 0.1 mm 3 mps 733 mmHg 86%
    16:00 +8°C° 0.1 mm 3 mps 734 mmHg 88%
    17:00 +8°C° 0.1 mm 3 mps 734 mmHg 90%
    18:00 +7°C° 0.1 mm 2 mps 735 mmHg 92%
    19:00 +7°C° 0.1 mm 2 mps 736 mmHg 93%
    20:00 +6°C° 0.1 mm 2 mps 736 mmHg 93%
    21:00 +6°C° 0.1 mm 2 mps 737 mmHg 94%
    22:00 +5°C° 0 mm 2 mps 737 mmHg 94%
    23:00 +5°C° 0 mm 2 mps 738 mmHg 94%

    21 October, Monday

    Time Temperature Precipitation Wind Pressure Humidity
    00:00 +5°C° 0 mm 2 mps 738 mmHg 94%
    01:00 +5°C° 0 mm 2 mps 738 mmHg 94%
    02:00 +4°C° 0 mm 2 mps 738 mmHg 94%
    03:00 +5°C° 0 mm 1 mps 738 mmHg 93%
    04:00 +5°C° 0 mm 1 mps 739 mmHg 93%
    05:00 +5°C° 0 mm 1 mps 739 mmHg 93%
    06:00 +5°C° 0 mm 1 mps 739 mmHg 92%
    07:00 +5°C° 0 mm 1 mps 739 mmHg 90%
    08:00 +5°C° 0 mm 1 mps 740 mmHg 89%
    09:00 +6°C° 0 mm 1 mps 740 mmHg 87%
    10:00 +7°C° 0 mm 1 mps 740 mmHg 83%
    11:00 +8°C° 0 mm 1 mps 740 mmHg 79%
    12:00 +8°C° 0 mm 1 mps 740 mmHg 75%
    13:00 +8°C° 0 mm 1 mps 740 mmHg 76%
    14:00 +8°C° 0 mm 1 mps 740 mmHg 78%
    15:00 +8°C° 0 mm 1 mps 740 mmHg 79%
    16:00 +8°C° 0 mm 1 mps 739 mmHg 82%
    17:00 +7°C° 0 mm 1 mps 739 mmHg 85%
    18:00 +6°C° 0 mm 1 mps 739 mmHg 88%
    19:00 +6°C° 0 mm 1 mps 739 mmHg 89%
    20:00 +6°C° 0 mm 1 mps 739 mmHg 90%
    21:00 +5°C° 0 mm 1 mps 739 mmHg 90%
    22:00 +5°C° 0 mm 1 mps 738 mmHg 91%
    23:00 +4°C° 0 mm 1 mps 738 mmHg 91%

    22 October, Tuesday

    Time Temperature Precipitation Wind Pressure Humidity
    00:00 +4°C° 0 mm 1 mps 738 mmHg 92%
    01:00 +4°C° 0 mm 1 mps 737 mmHg 92%
    02:00 +3°C° 0 mm 1 mps 737 mmHg 92%
    03:00 +3°C° 0 mm 1 mps 736 mmHg 92%
    04:00 +3°C° 0 mm 1 mps 736 mmHg 91%
    05:00 +4°C° 0 mm 1 mps 736 mmHg 91%
    06:00 +4°C° 0 mm 1 mps 736 mmHg 91%
    07:00 +5°C° 0 mm 1 mps 736 mmHg 90%
    08:00 +5°C° 0 mm 2 mps 736 mmHg 90%
    09:00 +5°C° 0 mm 2 mps 736 mmHg 89%
    10:00 +6°C° 0 mm 2 mps 736 mmHg 86%
    11:00 +7°C° 0 mm 3 mps 736 mmHg 82%
    12:00 +7°C° 0 mm 3 mps 736 mmHg 78%
    13:00 +7°C° 0 mm 3 mps 735 mmHg 78%
    14:00 +7°C° 0 mm 3 mps 735 mmHg 78%
    15:00 +7°C° 0 mm 3 mps 734 mmHg 77%
    16:00 +5°C° 0 mm 3 mps 734 mmHg 82%
    17:00 +4°C° 0 mm 3 mps 734 mmHg 86%
    18:00 +5°C° 0 mm 2 mps 733 mmHg 91%
    19:00 +5°C° 0 mm 2 mps 733 mmHg 91%
    20:00 +5°C° 0 mm 2 mps 733 mmHg 92%
    21:00 +4°C° 0 mm 2 mps 733 mmHg 93%
    22:00 +4°C° 0 mm 2 mps 733 mmHg 93%
    23:00 +4°C° 0 mm 2 mps 733 mmHg 94%
    Show more